Weather in Telford

United Kingdom     52°40′35″N   2°26′30″W
temp.,
°C
wind,
m/s
gust,
m/s
humid.,
%
clouds,
%
prec.,
mm/h
press.,
hPa
HPBL,
m
18 may, tue
tue1801:00+5wsw239279 0.0 101135
04:00+6sw369219 0.0 1011136
07:00+8wsw49890 0.0 1011355
10:00+12w457419 0.1 1012961
13:00+14w346236 1.2 10121411
16:00+13wsw347296 2.2 1013988
19:00+10nne46885 4.6 1013317
22:00+6ene118670 0.0 101410
19 may, wed
wed1901:00+8wnw118783 0.0 101512
04:00+4w229334 0.0 101512
07:00+7wsw25909 0.0 1016159
10:00+12nw567729 0.3 1017971
13:00+13nw466423 1.7 10181461
16:00+13nw456710 1.6 10191141
19:00+12n34788 2.6 1019540
22:00+6wsw22862 0.1 102113
20 may, thu
thu2001:00+5sw2290100 0.1 102121
04:00+5s2291100 0.0 102029
07:00+7s3692100 0.0 1018192
10:00+10s71178100 0.0 10161057
13:00+10s101783100 0.1 10121046
16:00+10s101788100 0.0 10081292
19:00+12ssw10178150 0.3 10051437
22:00+11sw11187095 0.1 10031301
21 may, fri
fri2101:00+10sw10196975 0.1 10011325
04:00+10ssw112069100 0.0 9981687
07:00+9ssw111981100 0.1 9951520
10:00+10ssw111980100 0.1 9931641
13:00+9sw101889100 0.9 9911450
16:00+12wsw10158796 0.8 9901412
19:00+10wsw61289100 1.4 991856
22:00+9w5108974 0.1 992603
22 may, sat
sat2201:00+9wnw5109398 0.3 993677
04:00+7wnw71290100 0.1 994843
07:00+7wnw81285100 0.1 9971047
10:00+8wnw81384100 0.3 9981143
13:00+9wnw10147995 0.9 10001329
16:00+10wnw10156992 0.5 10021628
19:00+9wnw916725 0.9 10041491
22:00+4w49925 0.0 1007195